• In Belarus
  • List of Countries
  • For 7 days
  • Water Temperature
  • Satellite Maps
  • Weather Map
  • Weather Widgets
  • user-avatar
    Login

    Hourly Weather Kitzbuhel

    Today, 12 December, Tuesday

    Time Temperature Precipitation Wind Pressure Humidity
    00:00 +2°C° 0.8 mm 3 mps 659 mmHg 93%
    01:00 +2°C° 0 mm 3 mps 660 mmHg 95%
    02:00 +2°C° 2.2 mm 3 mps 661 mmHg 95%
    03:00 +2°C° 2.2 mm 3 mps 661 mmHg 94%
    04:00 +1°C° 2.2 mm 3 mps 662 mmHg 94%
    05:00 +1°C° 1.3 mm 3 mps 663 mmHg 94%
    06:00 +1°C° 1.3 mm 3 mps 664 mmHg 94%
    07:00 +2°C° 0 mm 2 mps 665 mmHg 95%
    08:00 +1°C° 0.6 mm 3 mps 666 mmHg 95%
    09:00 +1°C° 0.6 mm 3 mps 667 mmHg 94%
    10:00 +1°C° 0.6 mm 3 mps 668 mmHg 94%
    11:00 0°C° 0.7 mm 3 mps 668 mmHg 93%
    12:00 0°C° 0.7 mm 3 mps 669 mmHg 93%
    13:00 -1°C° 0.7 mm 3 mps 670 mmHg 93%
    14:00 -1°C° 0.5 mm 2 mps 670 mmHg 93%
    15:00 -2°C° 0.5 mm 2 mps 671 mmHg 94%
    16:00 -3°C° 0.5 mm 2 mps 671 mmHg 94%
    17:00 -1°C° 0.5 mm 1 mps 671 mmHg 95%
    18:00 -1°C° 0.5 mm 1 mps 672 mmHg 95%
    19:00 -2°C° 0.5 mm 1 mps 673 mmHg 95%
    20:00 -2°C° 0.4 mm 1 mps 673 mmHg 95%
    21:00 -2°C° 0.4 mm 1 mps 674 mmHg 94%
    22:00 -2°C° 0.4 mm 1 mps 674 mmHg 94%
    23:00 -3°C° 0.2 mm 1 mps 674 mmHg 94%

    Tomorrow, 13 December, Wednesday

    Time Temperature Precipitation Wind Pressure Humidity
    00:00 -3°C° 0.2 mm 1 mps 675 mmHg 93%
    01:00 -3°C° 0.2 mm 1 mps 675 mmHg 93%
    02:00 -3°C° 0.1 mm 1 mps 675 mmHg 93%
    03:00 -4°C° 0.1 mm 1 mps 675 mmHg 92%
    04:00 -6°C° 0.1 mm 1 mps 675 mmHg 92%
    05:00 -6°C° 0 mm 1 mps 675 mmHg 91%
    06:00 -7°C° 0 mm 1 mps 675 mmHg 91%
    07:00 -7°C° 0 mm 1 mps 675 mmHg 90%
    08:00 -6°C° 0 mm 1 mps 675 mmHg 88%
    09:00 -4°C° 0 mm 1 mps 676 mmHg 87%
    10:00 -3°C° 0 mm 1 mps 676 mmHg 85%
    11:00 -2°C° 0 mm 1 mps 675 mmHg 82%
    12:00 0°C° 0 mm 1 mps 675 mmHg 79%
    13:00 -1°C° 0 mm 2 mps 674 mmHg 77%
    14:00 -2°C° 0 mm 2 mps 674 mmHg 79%
    15:00 -3°C° 0 mm 2 mps 673 mmHg 82%
    16:00 -4°C° 0 mm 2 mps 672 mmHg 84%
    17:00 -4°C° 0 mm 2 mps 672 mmHg 84%
    18:00 -4°C° 0 mm 2 mps 672 mmHg 83%
    19:00 -5°C° 0 mm 2 mps 672 mmHg 82%
    20:00 -5°C° 0 mm 3 mps 671 mmHg 80%
    21:00 -5°C° 0 mm 3 mps 671 mmHg 78%
    22:00 -5°C° 0 mm 3 mps 670 mmHg 76%
    23:00 -5°C° 0.1 mm 3 mps 670 mmHg 75%

    Day after tomorrow, 14 December, Thursday

    Time Temperature Precipitation Wind Pressure Humidity
    00:00 -4°C° 0.1 mm 3 mps 669 mmHg 75%
    01:00 -4°C° 0.1 mm 3 mps 669 mmHg 74%
    02:00 -4°C° 0.1 mm 3 mps 668 mmHg 73%
    03:00 -4°C° 0.1 mm 3 mps 668 mmHg 73%
    04:00 -2°C° 0.1 mm 3 mps 668 mmHg 72%
    05:00 -2°C° 0 mm 3 mps 668 mmHg 73%
    06:00 -2°C° 0 mm 3 mps 668 mmHg 74%
    07:00 -1°C° 0 mm 3 mps 668 mmHg 75%
    08:00 -1°C° 0 mm 3 mps 668 mmHg 77%
    09:00 +1°C° 0 mm 2 mps 668 mmHg 79%
    10:00 +1°C° 0 mm 2 mps 669 mmHg 81%
    11:00 +2°C° 0.1 mm 2 mps 668 mmHg 83%
    12:00 +3°C° 0.1 mm 2 mps 668 mmHg 86%
    13:00 +3°C° 0.1 mm 2 mps 668 mmHg 89%
    14:00 +2°C° 0.3 mm 2 mps 668 mmHg 90%
    15:00 +2°C° 0.3 mm 1 mps 667 mmHg 91%
    16:00 +2°C° 0.3 mm 1 mps 666 mmHg 92%
    17:00 -1°C° 0.1 mm 2 mps 666 mmHg 90%
    18:00 -2°C° 0.1 mm 2 mps 665 mmHg 89%
    19:00 -3°C° 0.1 mm 2 mps 665 mmHg 87%
    20:00 -4°C° 0 mm 3 mps 664 mmHg 86%
    21:00 -2°C° 0 mm 3 mps 664 mmHg 84%
    22:00 -2°C° 0 mm 3 mps 663 mmHg 83%
    23:00 -2°C° 0.1 mm 3 mps 663 mmHg 82%

    15 December, Friday

    Time Temperature Precipitation Wind Pressure Humidity
    00:00 -3°C° 0.1 mm 4 mps 663 mmHg 82%
    01:00 -2°C° 0.1 mm 4 mps 663 mmHg 82%
    02:00 -2°C° 0.9 mm 3 mps 663 mmHg 86%
    03:00 -2°C° 0.9 mm 3 mps 663 mmHg 90%
    04:00 -2°C° 0.9 mm 2 mps 664 mmHg 94%
    05:00 -2°C° 0.5 mm 2 mps 664 mmHg 93%
    06:00 -3°C° 0.5 mm 2 mps 664 mmHg 93%
    07:00 -3°C° 0.5 mm 2 mps 664 mmHg 92%
    08:00 -3°C° 0.3 mm 2 mps 664 mmHg 91%
    09:00 0°C° 0.3 mm 1 mps 664 mmHg 90%
    10:00 0°C° 0.3 mm 1 mps 664 mmHg 90%
    11:00 0°C° 0.3 mm 1 mps 664 mmHg 89%
    12:00 0°C° 0.3 mm 1 mps 665 mmHg 88%
    13:00 +1°C° 0.3 mm 1 mps 665 mmHg 88%
    14:00 0°C° 0.2 mm 1 mps 665 mmHg 89%
    15:00 0°C° 0.2 mm 1 mps 665 mmHg 90%
    16:00 -1°C° 0.2 mm 1 mps 665 mmHg 92%
    17:00 -1°C° 0.2 mm 1 mps 665 mmHg 91%
    18:00 -2°C° 0.2 mm 1 mps 665 mmHg 91%
    19:00 -2°C° 0.2 mm 1 mps 665 mmHg 90%
    20:00 -3°C° 0.1 mm 1 mps 665 mmHg 89%
    21:00 -3°C° 0.1 mm 1 mps 666 mmHg 87%
    22:00 -6°C° 0.1 mm 2 mps 666 mmHg 86%
    23:00 -6°C° 0 mm 2 mps 666 mmHg 84%

    16 December, Saturday

    Time Temperature Precipitation Wind Pressure Humidity
    00:00 -6°C° 0 mm 2 mps 666 mmHg 83%
    01:00 -6°C° 0 mm 2 mps 666 mmHg 82%
    02:00 -5°C° 0.2 mm 2 mps 666 mmHg 84%
    03:00 -5°C° 0.2 mm 2 mps 667 mmHg 86%
    04:00 -5°C° 0.2 mm 2 mps 667 mmHg 88%
    05:00 -5°C° 0.1 mm 2 mps 668 mmHg 89%
    06:00 -6°C° 0.1 mm 2 mps 668 mmHg 89%
    07:00 -7°C° 0.1 mm 3 mps 669 mmHg 90%
    08:00 -6°C° 0.1 mm 2 mps 669 mmHg 89%
    09:00 -5°C° 0.1 mm 2 mps 670 mmHg 88%
    10:00 -5°C° 0.1 mm 2 mps 671 mmHg 86%
    11:00 -4°C° 0 mm 2 mps 671 mmHg 84%
    12:00 -3°C° 0 mm 2 mps 671 mmHg 81%
    13:00 -3°C° 0 mm 2 mps 671 mmHg 78%
    14:00 -4°C° 0 mm 2 mps 671 mmHg 81%
    15:00 -5°C° 0 mm 2 mps 671 mmHg 84%
    16:00 -4°C° 0 mm 1 mps 671 mmHg 87%
    17:00 -7°C° 0 mm 2 mps 672 mmHg 86%
    18:00 -7°C° 0 mm 2 mps 672 mmHg 85%
    19:00 -8°C° 0 mm 2 mps 673 mmHg 85%
    20:00 -8°C° 0 mm 2 mps 673 mmHg 85%
    21:00 -8°C° 0 mm 2 mps 673 mmHg 85%
    22:00 -8°C° 0 mm 2 mps 674 mmHg 86%
    23:00 -8°C° 0.1 mm 2 mps 674 mmHg 86%

    17 December, Sunday

    Time Temperature Precipitation Wind Pressure Humidity
    00:00 -8°C° 0.1 mm 2 mps 674 mmHg 87%
    01:00 -8°C° 0.1 mm 2 mps 674 mmHg 87%
    02:00 -8°C° 0 mm 2 mps 675 mmHg 88%
    03:00 -8°C° 0 mm 2 mps 675 mmHg 89%
    04:00 -8°C° 0 mm 2 mps 675 mmHg 90%
    05:00 -8°C° 0.1 mm 2 mps 675 mmHg 90%
    06:00 -8°C° 0.1 mm 2 mps 675 mmHg 90%
    07:00 -8°C° 0.1 mm 2 mps 676 mmHg 90%
    08:00 -8°C° 0.2 mm 2 mps 676 mmHg 90%
    09:00 -7°C° 0.2 mm 2 mps 677 mmHg 90%
    10:00 -6°C° 0.2 mm 2 mps 677 mmHg 89%
    11:00 -6°C° 0.2 mm 2 mps 677 mmHg 88%
    12:00 -5°C° 0.2 mm 2 mps 678 mmHg 87%
    13:00 -5°C° 0.2 mm 2 mps 678 mmHg 86%
    14:00 -5°C° 0.2 mm 2 mps 678 mmHg 88%
    15:00 -5°C° 0.2 mm 2 mps 678 mmHg 90%
    16:00 -6°C° 0.2 mm 2 mps 678 mmHg 92%
    17:00 -6°C° 0.2 mm 2 mps 679 mmHg 93%
    18:00 -7°C° 0.2 mm 2 mps 679 mmHg 93%
    19:00 -7°C° 0.2 mm 2 mps 680 mmHg 93%
    20:00 -7°C° 0.2 mm 2 mps 680 mmHg 93%
    21:00 -7°C° 0.2 mm 2 mps 681 mmHg 92%
    22:00 -7°C° 0.2 mm 2 mps 681 mmHg 92%
    23:00 -7°C° 0.2 mm 2 mps 681 mmHg 92%
    Show more